1521104400.61,16342,10.75,72472.8,-0.69,-0.69,-0.69,0,*6D
1521104401.8,16343,10.75,72478.3,-0.69,-0.73,-0.73,0,*6C
1521104402.98,16344,10.75,72476.0,-0.69,-0.69,-0.69,0,*6B
1521104404.18,16345,10.75,72476.3,-0.67,-0.69,-0.65,0,*68
1521104405.39,16346,10.75,72478.0,-0.67,-0.65,-0.69,0,*6B
1521104406.6,16347,10.75,72478.0,-0.67,-0.69,-0.69,0,*66
1521104407.81,16348,10.75,72478.8,-0.67,-0.77,-0.69,0,*66
1521104409.02,16349,10.75,72478.8,-0.67,-0.69,-0.69,0,*68
1521104410.22,16350,10.75,72476.0,-0.67,-0.61,-0.69,0,*68
1521104411.43,16351,10.75,72474.8,-0.67,-0.69,-0.69,0,*61
1521104412.63,16352,10.75,72476.5,-0.67,-0.69,-0.69,0,*62
1521104413.85,16353,10.75,72478.0,-0.67,-0.69,-0.77,0,*6C
1521104415.06,16354,10.75,72476.8,-0.67,-0.77,-0.77,0,*64
1521104416.27,16355,10.75,72476.8,-0.63,-0.73,-0.73,0,*61
1521104417.49,16356,10.75,72478.3,-0.63,-0.73,-0.73,0,*62
1521104418.7,16357,10.75,72476.5,-0.67,-0.77,-0.77,0,*67
1521104419.91,16358,10.75,72476.8,-0.63,-0.73,-0.73,0,*6C
1521104421.12,16359,10.75,72476.5,-0.63,-0.73,-0.77,0,*69
1521104422.33,16360,10.75,72478.3,-0.67,-0.77,-0.77,0,*63
1521104423.54,16361,10.75,72476.8,-0.67,-0.77,-0.77,0,*62
1521104424.76,16362,10.75,72480.3,-0.67,-0.77,-0.77,0,*61
1521104425.97,16363,10.75,72476.5,-0.67,-0.77,-0.77,0,*60
1521104427.18,16364,10.75,72476.5,-0.67,-0.77,-0.77,0,*67
1521104428.39,16365,10.75,72476.5,-0.67,-0.77,-0.77,0,*66
1521104429.6,16366,10.75,72478.5,-0.67,-0.77,-0.77,0,*65
1521104430.81,16367,10.75,72476.0,-0.67,-0.77,-0.77,0,*64
1521104432.02,16368,10.75,72478.8,-0.67,-0.69,-0.77,0,*64
1521104433.23,16369,10.75,72476.3,-0.67,-0.69,-0.77,0,*65
1521104434.41,16370,10.75,72476.3,-0.61,-0.65,-0.73,0,*63
1521104435.62,16371,10.75,72478.0,-0.63,-0.65,-0.73,0,*60
1521104436.84,16372,10.75,72476.0,-0.63,-0.65,-0.73,0,*63
1521104438.02,16373,10.81,72482.5,-0.61,-0.65,-0.73,0,*60
1521104439.23,16374,10.75,72480.0,-0.63,-0.65,-0.73,0,*65
1521104440.44,16375,10.75,72478.3,-0.63,-0.65,-0.73,0,*64
1521104441.65,16376,10.75,72476.5,-0.63,-0.65,-0.73,0,*67
1521104442.86,16377,10.75,72476.3,-0.63,-0.65,-0.65,0,*61
1521104444.06,16378,10.75,72478.3,-0.63,-0.65,-0.65,0,*6E
1521104445.26,16379,10.75,72478.0,-0.63,-0.65,-0.61,0,*6B
1521104446.44,16380,10.75,72478.3,-0.61,-0.65,-0.65,0,*6B
1521104447.61,16381,10.75,72478.3,-0.61,-0.61,-0.65,0,*6E
1521104448.79,16382,10.75,72472.8,-0.61,-0.65,-0.65,0,*69
1521104449.96,16383,10.75,72474.0,-0.61,-0.65,-0.65,0,*68
1521104451.14,16384,10.75,72478.8,-0.61,-0.65,-0.65,0,*6F
1521104452.32,16385,10.75,72478.0,-0.61,-0.65,-0.65,0,*6E
1521104453.49,16386,10.75,72478.3,-0.61,-0.65,-0.65,0,*6D
1521104454.67,16387,10.75,72476.8,-0.61,-0.65,-0.57,0,*6D
1521104455.87,16388,10.75,72478.0,-0.59,-0.61,-0.61,0,*68
1521104457.08,16389,10.75,72476.3,-0.59,-0.57,-0.61,0,*6C
1521104458.28,16390,10.75,72474.0,-0.59,-0.61,-0.61,0,*61
1521104459.48,16391,10.75,72472.8,-0.59,-0.61,-0.61,0,*60
1521104460.68,16392,10.75,72476.5,-0.59,-0.61,-0.57,0,*66
1521104461.88,16393,10.75,72474.8,-0.59,-0.61,-0.61,0,*62
1521104463.08,16394,10.75,72476.8,-0.59,-0.61,-0.61,0,*65
1521104464.28,16395,10.75,72474.8,-0.59,-0.61,-0.61,0,*64
1521104465.49,16396,10.75,72474.0,-0.59,-0.61,-0.57,0,*62
1521104466.69,16397,10.75,72476.8,-0.59,-0.61,-0.61,0,*66
1521104467.86,16398,10.75,72476.0,-0.57,-0.61,-0.57,0,*62
1521104469.06,16399,10.75,72474.5,-0.59,-0.61,-0.61,0,*68
1521104470.23,16400,10.75,72474.8,-0.57,-0.61,-0.61,0,*61
1521104471.43,16401,10.75,72472.5,-0.59,-0.61,-0.61,0,*6E
1521104472.6,16402,10.75,72474.5,-0.57,-0.61,-0.61,0,*63
1521104473.81,16403,10.75,72476.3,-0.59,-0.57,-0.61,0,*69
1521104474.98,16404,10.75,72476.0,-0.57,-0.69,-0.61,0,*6D
1521104476.19,16405,10.75,72476.3,-0.59,-0.69,-0.61,0,*62
1521104477.37,16406,10.75,72478.0,-0.57,-0.69,-0.57,0,*6A
1521104478.55,16407,10.75,72472.8,-0.57,-0.69,-0.61,0,*6E
1521104479.73,16408,10.75,72474.3,-0.57,-0.69,-0.61,0,*61
1521104480.9,16409,10.75,72474.8,-0.57,-0.69,-0.61,0,*60
1521104482.11,16410,10.75,72476.8,-0.59,-0.69,-0.61,0,*66
1521104483.31,16411,10.75,72478.8,-0.59,-0.61,-0.61,0,*6F
1521104484.49,16412,10.75,72476.5,-0.57,-0.69,-0.61,0,*6A
1521104485.67,16413,10.75,72474.5,-0.57,-0.69,-0.69,0,*63
1521104486.88,16414,10.75,72478.8,-0.59,-0.69,-0.69,0,*6A
1521104488.06,16415,10.75,72472.8,-0.57,-0.69,-0.69,0,*65
1521104489.24,16416,10.75,72476.0,-0.57,-0.69,-0.69,0,*66
1521104490.43,16417,10.75,72478.5,-0.57,-0.73,-0.69,0,*6C
1521104491.61,16418,10.75,72480.5,-0.57,-0.69,-0.69,0,*68
1521104492.79,16419,10.75,72476.3,-0.57,-0.73,-0.69,0,*62
1521104493.97,16420,10.75,72476.5,-0.57,-0.69,-0.69,0,*63
1521104495.16,16421,10.75,72482.0,-0.57,-0.69,-0.73,0,*69
1521104496.35,16422,10.75,72476.3,-0.57,-0.73,-0.73,0,*61
1521104497.55,16423,10.75,72478.0,-0.55,-0.69,-0.69,0,*62
1521104498.75,16424,10.75,72478.0,-0.55,-0.69,-0.65,0,*69
1521104499.96,16425,10.75,72478.0,-0.55,-0.65,-0.69,0,*68
1521104501.16,16426,10.75,72478.3,-0.55,-0.65,-0.65,0,*67
1521104502.36,16427,10.75,72476.5,-0.55,-0.65,-0.65,0,*66
1521104503.56,16428,10.75,72474.8,-0.55,-0.69,-0.65,0,*65
1521104504.76,16429,10.75,72478.3,-0.55,-0.65,-0.69,0,*64
1521104505.94,16430,10.75,72476.3,-0.57,-0.69,-0.65,0,*6E
1521104507.14,16431,10.75,72474.5,-0.55,-0.65,-0.65,0,*61
1521104508.35,16432,10.75,72476.8,-0.55,-0.69,-0.69,0,*62
1521104509.55,16433,10.75,72476.8,-0.55,-0.65,-0.69,0,*6F
1521104510.75,16434,10.75,72476.8,-0.55,-0.69,-0.69,0,*64
1521104511.96,16435,10.75,72478.8,-0.55,-0.69,-0.65,0,*69
1521104513.14,16436,10.75,72478.0,-0.53,-0.69,-0.69,0,*60
1521104514.31,16437,10.75,72478.8,-0.53,-0.69,-0.65,0,*6D
1521104515.51,16438,10.75,72478.5,-0.55,-0.65,-0.65,0,*68
1521104516.71,16439,10.75,72478.8,-0.55,-0.65,-0.65,0,*69
1521104517.92,16440,10.75,72476.8,-0.55,-0.69,-0.69,0,*67
1521104519.12,16441,10.75,72478.3,-0.55,-0.69,-0.65,0,*6A
1521104520.32,16442,10.75,72476.0,-0.55,-0.69,-0.65,0,*69
1521104521.5,16443,10.75,72476.5,-0.53,-0.69,-0.65,0,*6E
1521104522.68,16444,10.75,72476.0,-0.53,-0.65,-0.69,0,*69
1521104523.85,16445,10.75,72472.3,-0.53,-0.65,-0.65,0,*64
1521104525.06,16446,10.75,72476.5,-0.55,-0.77,-0.65,0,*62
1521104526.26,16447,10.75,72472.8,-0.55,-0.69,-0.65,0,*6C
1521104527.46,16448,10.75,72476.0,-0.55,-0.69,-0.69,0,*6F
1521104528.66,16449,10.75,72476.5,-0.55,-0.69,-0.65,0,*62
1521104529.87,16450,10.75,72478.3,-0.55,-0.69,-0.69,0,*66
1521104531.05,16451,10.75,72474.0,-0.53,-0.65,-0.69,0,*6D
1521104532.25,16452,10.75,72476.3,-0.55,-0.69,-0.69,0,*64
1521104533.43,16453,10.75,72472.8,-0.53,-0.65,-0.65,0,*63
1521104534.61,16454,10.75,72474.3,-0.53,-0.69,-0.65,0,*68
1521104535.79,16455,10.75,72478.3,-0.53,-0.69,-0.69,0,*65
1521104536.97,16456,10.75,72476.5,-0.53,-0.69,-0.69,0,*66
1521104538.14,16457,10.75,72474.5,-0.53,-0.69,-0.65,0,*6B
1521104539.32,16458,10.75,72472.8,-0.53,-0.69,-0.65,0,*64
1521104540.52,16459,10.75,72472.3,-0.55,-0.65,-0.65,0,*6F
1521104541.7,16460,10.75,72474.8,-0.53,-0.69,-0.65,0,*6F
1521104542.88,16461,10.75,72472.0,-0.53,-0.65,-0.65,0,*62
1521104544.05,16462,10.75,72472.5,-0.53,-0.69,-0.65,0,*6D
1521104545.23,16463,10.75,72472.8,-0.53,-0.69,-0.65,0,*6C
1521104546.41,16464,10.75,72472.0,-0.53,-0.69,-0.65,0,*6B
1521104547.58,16465,10.75,72476.8,-0.53,-0.65,-0.65,0,*66
1521104548.76,16466,10.75,72474.8,-0.53,-0.69,-0.65,0,*69
1521104549.94,16467,10.75,72474.8,-0.53,-0.65,-0.65,0,*64
1521104551.12,16468,10.75,72474.5,-0.53,-0.69,-0.69,0,*6B
1521104552.3,16469,10.75,72468.5,-0.53,-0.69,-0.69,0,*6A
1521104553.48,16470,10.75,72466.8,-0.53,-0.69,-0.69,0,*62
1521104554.66,16471,10.75,72470.5,-0.53,-0.69,-0.65,0,*6F
1521104555.84,16472,10.75,72470.8,-0.53,-0.77,-0.77,0,*60
1521104557.02,16473,10.75,72468.8,-0.53,-0.77,-0.77,0,*61
1521104558.2,16474,10.75,72468.3,-0.53,-0.77,-0.77,0,*66
1521104559.39,16475,10.75,72468.5,-0.53,-0.69,-0.77,0,*68
1521104560.57,16476,10.75,72468.0,-0.53,-0.69,-0.77,0,*6B
1521104561.79,16477,10.81,72468.5,-0.51,-0.73,-0.77,0,*63
1521104562.99,16478,10.75,72470.5,-0.51,-0.73,-0.65,0,*6F
1521104564.18,16479,10.75,72470.8,-0.49,-0.73,-0.65,0,*67
1521104565.36,16480,10.75,72470.8,-0.53,-0.69,-0.77,0,*62
1521104566.54,16481,10.75,72470.5,-0.53,-0.77,-0.77,0,*6C
1521104567.75,16482,10.75,72468.5,-0.51,-0.73,-0.65,0,*6A
1521104568.93,16483,10.75,72464.8,-0.53,-0.69,-0.69,0,*6E
1521104570.12,16484,10.75,72468.8,-0.53,-0.77,-0.77,0,*69
1521104571.3,16485,10.75,72470.8,-0.49,-0.65,-0.65,0,*63
1521104572.5,16486,10.75,72468.5,-0.51,-0.61,-0.65,0,*6D
1521104573.7,16487,10.75,72470.0,-0.51,-0.65,-0.65,0,*68
1521104574.9,16488,10.75,72468.5,-0.51,-0.61,-0.61,0,*67
1521104576.1,16489,10.81,72474.8,-0.51,-0.65,-0.61,0,*62
1521104577.3,16490,10.81,72476.5,-0.51,-0.61,-0.61,0,*6E
1521104578.5,16491,10.75,72472.3,-0.51,-0.65,-0.61,0,*6B
1521104579.7,16492,10.81,72476.5,-0.51,-0.61,-0.65,0,*68
1521104580.88,16493,10.75,72474.8,-0.53,-0.65,-0.65,0,*6F
1521104582.05,16494,10.75,72468.5,-0.49,-0.61,-0.61,0,*63
1521104583.26,16495,10.75,72472.0,-0.51,-0.65,-0.61,0,*6F
1521104584.46,16496,10.75,72470.5,-0.51,-0.61,-0.61,0,*68
1521104585.63,16497,10.81,72472.5,-0.49,-0.61,-0.61,0,*60
1521104586.8,16498,10.75,72470.5,-0.49,-0.61,-0.61,0,*6F
1521104587.98,16499,10.81,72476.0,-0.49,-0.61,-0.61,0,*6E
1521104589.15,16500,10.75,72478.0,-0.49,-0.61,-0.61,0,*6F
1521104590.35,16501,10.75,72474.3,-0.51,-0.61,-0.53,0,*66
1521104591.56,16502,10.75,72478.3,-0.51,-0.61,-0.53,0,*65
1521104592.73,16503,10.81,72482.8,-0.49,-0.61,-0.53,0,*6D
1521104593.94,16504,10.75,72478.3,-0.51,-0.53,-0.53,0,*62
1521104595.15,16505,10.81,72478.5,-0.47,-0.45,-0.49,0,*68
1521104596.35,16506,10.75,72476.0,-0.47,-0.45,-0.45,0,*67
1521104597.56,16507,10.75,72476.5,-0.47,-0.41,-0.45,0,*62
1521104598.78,16508,10.75,72476.3,-0.47,-0.41,-0.41,0,*69
1521104599.99,16509,10.75,72478.3,-0.47,-0.41,-0.41,0,*68
1521104601.21,16510,10.75,72478.0,-0.47,-0.41,-0.41,0,*60
1521104602.42,16511,10.75,72476.0,-0.47,-0.41,-0.41,0,*61
1521104603.62,16512,10.75,72480.0,-0.45,-0.41,-0.41,0,*60
1521104604.81,16513,10.75,72476.5,-0.45,-0.41,-0.41,0,*61
1521104606.0,16514,10.81,72476.8,-0.45,-0.41,-0.41,0,*66
1521104607.17,16515,10.75,72474.8,-0.45,-0.33,-0.29,0,*6C
1521104608.4,16516,10.75,72476.8,-0.43,-0.27,-0.29,0,*6C
1521104609.6,16517,10.81,72476.8,-0.43,-0.29,-0.29,0,*63
1521104610.82,16518,10.81,72478.5,-0.43,-0.29,-0.27,0,*62
1521104612.08,16519,10.75,72478.3,-0.39,-0.27,-0.23,0,*64
1521104613.33,16520,10.81,72478.8,-0.39,-0.23,-0.27,0,*6E
1521104614.58,16521,10.75,72476.5,-0.43,-0.27,-0.27,0,*66
1521104615.82,16522,10.75,72474.8,-0.39,-0.23,-0.15,0,*6D
1521104617.07,16523,10.81,72478.8,-0.39,-0.23,-0.23,0,*69
1521104618.31,16524,10.81,72476.5,-0.39,-0.27,-0.15,0,*6F
1521104619.54,16525,10.81,72476.5,-0.37,-0.23,-0.23,0,*61
1521104620.77,16526,10.81,72474.3,-0.37,-0.27,-0.23,0,*66
1521104621.99,16527,10.81,72472.5,-0.37,-0.27,-0.27,0,*63
1521104623.22,16528,10.81,72474.0,-0.37,-0.27,-0.27,0,*6C
1521104624.48,16529,10.75,72472.3,-0.35,-0.23,-0.23,0,*6F
1521104625.73,16530,10.81,72476.0,-0.35,-0.23,-0.23,0,*67
1521104626.99,16531,10.75,72472.3,-0.35,-0.23,-0.23,0,*66
1521104628.24,16532,10.81,72476.8,-0.35,-0.23,-0.27,0,*61
1521104629.47,16533,10.81,72474.0,-0.35,-0.29,-0.23,0,*6E
1521104630.7,16534,10.81,72474.3,-0.35,-0.29,-0.23,0,*69
1521104631.92,16535,10.81,72474.0,-0.35,-0.33,-0.23,0,*63
1521104633.15,16536,10.81,72472.8,-0.35,-0.29,-0.23,0,*6B
1521104634.38,16537,10.75,72470.3,-0.35,-0.29,-0.23,0,*6A
1521104635.6,16538,10.75,72468.0,-0.35,-0.29,-0.23,0,*65
1521104636.83,16539,10.75,72468.5,-0.35,-0.29,-0.23,0,*64
1521104638.03,16540,10.81,72474.3,-0.35,-0.29,-0.29,0,*60
1521104639.21,16541,10.81,72470.8,-0.33,-0.29,-0.29,0,*67
1521104640.39,16542,10.75,72468.5,-0.33,-0.33,-0.29,0,*6F
1521104641.64,16543,10.81,72472.0,-0.31,-0.27,-0.27,0,*67
1521104642.82,16544,10.75,72468.0,-0.33,-0.29,-0.29,0,*62
1521104644.02,16545,10.81,72470.8,-0.33,-0.29,-0.27,0,*6D
1521104645.28,16546,10.75,72468.3,-0.31,-0.27,-0.27,0,*62
1521104646.53,16547,10.81,72472.0,-0.31,-0.27,-0.27,0,*63
1521104647.79,16548,10.81,72472.5,-0.31,-0.27,-0.27,0,*6C
1521104649.04,16549,10.81,72474.8,-0.31,-0.27,-0.27,0,*6D
1521104650.28,16550,10.81,72472.8,-0.31,-0.27,-0.19,0,*68
1521104651.51,16551,10.75,72468.5,-0.31,-0.27,-0.19,0,*69
1521104652.74,16552,10.81,72474.3,-0.31,-0.27,-0.19,0,*6A
1521104653.96,16553,10.81,72474.8,-0.29,-0.23,-0.15,0,*6A
1521104655.17,16554,10.81,72474.8,-0.29,-0.23,-0.15,0,*6D
1521104656.4,16555,10.81,72472.3,-0.29,-0.23,-0.23,0,*69
1521104657.63,16556,10.81,72468.3,-0.29,-0.27,-0.23,0,*6E
1521104658.84,16557,10.81,72470.8,-0.29,-0.23,-0.15,0,*6E
1521104660.07,16558,10.81,72472.5,-0.29,-0.23,-0.23,0,*64
1521104661.31,16559,10.81,72470.5,-0.29,-0.23,-0.23,0,*65
1521104662.54,16560,10.75,72470.5,-0.29,-0.23,-0.23,0,*6F
1521104663.75,16561,10.81,72468.3,-0.29,-0.23,-0.15,0,*6B
1521104664.98,16562,10.81,72470.5,-0.27,-0.23,-0.15,0,*66
1521104666.21,16563,10.81,72468.8,-0.27,-0.23,-0.15,0,*67
1521104667.43,16564,10.81,72470.5,-0.29,-0.23,-0.15,0,*6E
1521104668.64,16565,10.81,72470.3,-0.29,-0.23,-0.15,0,*6F
1521104669.87,16566,10.81,72470.8,-0.27,-0.23,-0.15,0,*62
1521104671.1,16567,10.81,72470.8,-0.27,-0.23,-0.15,0,*63
1521104672.34,16568,10.81,72468.5,-0.27,-0.23,-0.15,0,*6C
1521104673.57,16569,10.81,72470.0,-0.27,-0.23,-0.15,0,*6D
1521104674.8,16570,10.81,72468.8,-0.27,-0.27,-0.15,0,*61
1521104676.03,16571,10.81,72470.0,-0.27,-0.23,-0.15,0,*64
1521104677.27,16572,10.81,72470.3,-0.27,-0.23,-0.15,0,*67
1521104678.5,16573,10.81,72468.0,-0.29,-0.23,-0.23,0,*6D
1521104679.75,16574,10.81,72470.0,-0.27,-0.23,-0.23,0,*64
1521104680.94,16575,10.81,72470.3,-0.25,-0.19,-0.19,0,*67
1521104682.15,16576,10.81,72468.0,-0.23,-0.19,-0.19,0,*62
1521104683.34,16577,10.75,72464.8,-0.25,-0.19,-0.19,0,*65
1521104684.52,16578,10.81,72470.3,-0.25,-0.19,-0.19,0,*6A
1521104685.73,16579,10.81,72468.8,-0.23,-0.19,-0.11,0,*65
1521104686.93,16580,10.81,72468.8,-0.25,-0.19,-0.11,0,*65
1521104688.14,16581,10.81,72464.5,-0.23,-0.19,-0.11,0,*62
1521104689.35,16582,10.81,72468.0,-0.23,-0.19,-0.11,0,*61
1521104690.54,16583,10.81,72470.5,-0.25,-0.19,-0.11,0,*66
1521104691.73,16584,10.81,72464.8,-0.25,-0.19,-0.11,0,*61
1521104692.95,16585,10.81,72470.3,-0.23,-0.19,-0.11,0,*66
1521104694.14,16586,10.81,72470.0,-0.25,-0.19,-0.11,0,*63
1521104695.35,16587,10.81,72470.0,-0.23,-0.19,-0.11,0,*64
1521104696.56,16588,10.81,72474.3,-0.23,-0.19,-0.11,0,*6B
1521104697.77,16589,10.81,72468.5,-0.23,-0.19,-0.11,0,*6A
1521104698.98,16590,10.81,72472.8,-0.23,-0.19,-0.11,0,*62
1521104700.19,16591,10.81,72472.5,-0.23,-0.19,-0.19,0,*6B
1521104701.4,16592,10.81,72472.5,-0.23,-0.19,-0.19,0,*68
1521104702.59,16593,10.81,72470.3,-0.21,-0.19,-0.15,0,*67
1521104703.79,16594,10.81,72468.3,-0.23,-0.19,-0.19,0,*6E
1521104704.98,16595,10.81,72470.0,-0.21,-0.15,-0.15,0,*6D
1521104706.19,16596,10.81,72470.3,-0.17,-0.15,-0.15,0,*6B
1521104707.41,16597,10.81,72472.0,-0.17,-0.15,-0.15,0,*6A
1521104708.59,16598,10.81,72468.8,-0.21,-0.15,-0.15,0,*60
1521104709.77,16599,10.81,72472.0,-0.21,-0.15,-0.15,0,*61
1521104710.99,16600,10.81,72472.0,-0.17,-0.15,-0.15,0,*67
1521104712.17,16601,10.81,72470.0,-0.21,-0.15,-0.15,0,*63
1521104713.38,16602,10.81,72472.0,-0.17,-0.15,-0.07,0,*56
1521104714.59,16603,10.81,72470.3,-0.17,-0.15,-0.03,0,*53
1521104715.8,16604,10.81,72474.8,-0.17,-0.15,-0.15,0,*63
1521104717.02,16605,10.81,72472.5,-0.17,-0.15,-0.15,0,*62
1521104718.21,16606,10.81,72474.8,-0.15,-0.11,-0.11,0,*63
1521104719.4,16607,10.81,72474.8,-0.15,-0.11,-0.11,0,*62
1521104720.62,16608,10.81,72472.0,-0.17,-0.15,-0.15,0,*6F
1521104721.83,16609,10.81,72472.0,-0.17,-0.15,-0.15,0,*6E
1521104723.04,16610,10.81,72472.5,-0.17,-0.07,-0.15,0,*55
1521104724.23,16611,10.81,72474.0,-0.15,-0.15,-0.11,0,*61
1521104725.45,16612,10.81,72474.5,-0.13,-0.11,-0.11,0,*60
1521104726.64,16613,10.81,72474.0,-0.15,-0.11,-0.11,0,*67
1521104727.83,16614,10.81,72472.8,-0.15,-0.11,-0.11,0,*60
1521104729.02,16615,10.81,72474.8,-0.15,-0.11,-0.11,0,*61
1521104730.24,16616,10.81,72474.3,-0.13,-0.11,-0.11,0,*64
1521104731.43,16617,10.81,72474.8,-0.15,-0.11,-0.11,0,*63
1521104732.65,16618,10.81,72472.5,-0.13,-0.11,-0.11,0,*6A
1521104733.87,16619,10.81,72474.5,-0.13,-0.11,-0.11,0,*6B
1521104735.08,16620,10.81,72472.3,-0.13,-0.11,-0.11,0,*61
1521104736.27,16621,10.81,72474.5,-0.15,-0.11,-0.03,0,*55
1521104737.47,16622,10.81,72472.8,-0.13,-0.11,-0.03,0,*50
1521104738.68,16623,10.81,72474.0,-0.13,-0.11,-0.03,0,*51
1521104739.89,16624,10.81,72470.8,-0.13,-0.11,-0.03,0,*56
1521104741.11,16625,10.81,72472.0,-0.13,-0.11,-0.11,0,*64
1521104742.33,16626,10.81,72470.0,-0.13,-0.11,-0.11,0,*67
1521104743.54,16627,10.81,72472.0,-0.13,-0.11,-0.11,0,*66
1521104744.73,16628,10.81,72472.0,-0.11,-0.11,-0.11,0,*6B
1521104745.9,16629,10.81,72472.5,-0.11,-0.07,-0.07,0,*6A
1521104747.07,16630,10.81,72472.3,-0.11,-0.07,-0.07,0,*62
1521104748.24,16631,10.81,72472.3,-0.11,-0.07,-0.07,0,*63
1521104749.4,16632,10.81,72468.3,-0.11,-0.07,0.01,0,*4B
1521104750.58,16633,10.81,72472.5,-0.11,-0.07,-0.07,0,*61
1521104751.75,16634,10.81,72474.5,-0.11,-0.07,-0.07,0,*66
1521104752.91,16635,10.81,72472.8,-0.11,-0.07,-0.07,0,*67
1521104754.08,16636,10.81,72474.5,-0.11,-0.07,-0.07,0,*64
1521104755.25,16637,10.81,72472.8,-0.11,-0.07,-0.07,0,*65
1521104756.45,16638,10.81,72468.3,-0.09,-0.07,-0.07,0,*53
1521104757.64,16639,10.81,72474.8,-0.09,-0.07,-0.07,0,*52
1521104758.84,16640,10.81,72470.8,-0.09,-0.07,-0.07,0,*5C
1521104760.03,16641,10.81,72472.0,-0.09,-0.07,-0.07,0,*5D
1521104761.2,16642,10.81,72472.3,-0.11,-0.07,-0.07,0,*67
1521104762.39,16643,10.81,72470.5,-0.09,-0.07,-0.07,0,*5F
1521104763.59,16644,10.81,72472.3,-0.09,-0.07,-0.07,0,*58
1521104764.78,16645,10.81,72472.0,-0.09,-0.07,-0.07,0,*59
1521104765.98,16646,10.81,72470.5,-0.09,-0.07,-0.07,0,*5A
1521104767.16,16647,10.81,72474.8,-0.09,-0.07,0.01,0,*70
1521104768.35,16648,10.81,72468.8,-0.09,-0.07,0.01,0,*7F
1521104769.54,16649,10.81,72472.3,-0.09,-0.07,0.01,0,*7E
1521104770.7,16650,10.81,72472.3,-0.07,-0.07,0.01,0,*78
1521104771.87,16651,10.81,72470.0,-0.07,-0.03,-0.03,0,*52
1521104773.03,16652,10.81,72472.0,-0.07,-0.03,-0.03,0,*51
1521104774.21,16653,10.81,72472.5,-0.05,0.01,0.01,0,*52
1521104775.38,16654,10.81,72474.5,-0.07,-0.03,-0.03,0,*57
1521104776.55,16655,10.81,72470.8,-0.07,-0.03,-0.03,0,*56
1521104777.72,16656,10.81,72472.3,-0.05,0.01,0.01,0,*57
1521104778.89,16657,10.81,72470.8,-0.07,-0.03,-0.03,0,*54
1521104780.06,16658,10.81,72472.5,-0.07,-0.03,-0.03,0,*5B
1521104781.23,16659,10.81,72474.3,-0.07,-0.03,-0.03,0,*5A
1521104782.4,16660,10.81,72470.5,-0.05,0.01,0.01,0,*52
1521104783.55,16661,10.81,72472.0,-0.03,0.01,0.01,0,*55
1521104784.72,16662,10.81,72472.8,-0.05,0.01,0.01,0,*50
1521104785.9,16663,10.81,72472.8,-0.05,0.01,0.01,0,*51
1521104787.05,16664,10.81,72474.3,-0.03,0.01,0.01,0,*50
1521104788.22,16665,10.81,72474.0,-0.05,0.01,0.01,0,*57
1521104789.39,16666,10.81,72474.8,-0.05,0.01,0.01,0,*54
1521104790.57,16667,10.81,72476.8,-0.05,0.01,0.01,0,*55
1521104791.72,16668,10.81,72472.5,-0.03,0.01,0.01,0,*5C
1521104792.87,16669,10.81,72474.5,-0.03,0.01,-0.03,0,*72
1521104794.02,16670,10.81,72470.5,-0.03,0.01,0.01,0,*55
1521104795.17,16671,10.81,72468.8,-0.03,0.01,0.09,0,*5C
1521104796.32,16672,10.81,72472.3,-0.03,0.01,0.09,0,*5F
1521104797.49,16673,10.81,72470.8,-0.03,-0.03,0.09,0,*71
1521104798.64,16674,10.81,72470.8,-0.03,0.01,0.09,0,*59
1521104799.81,16675,10.81,72472.5,-0.03,0.01,0.13,0,*63
1521104801.02,16676,10.81,72474.5,-0.01,0.05,0.13,0,*66
1521104802.22,16677,10.81,72470.5,-0.01,0.05,0.13,0,*67
1521104803.41,16678,10.81,72472.0,-0.01,0.05,0.01,0,*5B
1521104804.59,16679,10.81,72470.3,-0.01,0.05,0.05,0,*5E
1521104805.76,16680,10.81,72470.5,-0.03,-0.03,-0.03,0,*5A
1521104806.92,16681,10.81,72474.5,-0.03,-0.07,-0.03,0,*5F
1521104808.1,16682,10.81,72472.5,-0.01,0.01,-0.03,0,*75
1521104809.25,16683,10.81,72470.8,-0.03,0.01,0.01,0,*59
1521104810.43,16684,10.81,72470.5,-0.01,0.05,0.01,0,*58
1521104811.59,16685,10.81,72472.8,-0.03,-0.03,0.05,0,*74
1521104812.77,16686,10.81,72472.5,-0.01,0.01,0.05,0,*5A
1521104813.96,16687,10.81,72472.3,-0.01,0.05,0.05,0,*5F
1521104815.14,16688,10.81,72468.5,-0.01,0.05,0.05,0,*50
1521104816.33,16689,10.81,72468.0,-0.01,0.05,0.05,0,*51
1521104817.51,16690,10.81,72472.3,-0.01,0.01,-0.03,0,*76
1521104818.69,16691,10.81,72470.3,-0.01,0.05,0.05,0,*58
1521104819.88,16692,10.81,72474.0,-0.01,0.05,0.05,0,*5B
1521104821.03,16693,10.81,72468.8,0.01,0.05,0.05,0,*77
1521104822.19,16694,10.81,72474.0,0.05,0.09,0.05,0,*78
1521104823.33,16695,10.81,72472.0,0.01,0.01,0.05,0,*75
1521104824.47,16696,10.81,72470.3,0.01,0.01,0.01,0,*72
1521104825.63,16697,10.81,72472.3,0.01,0.05,-0.03,0,*58
1521104826.79,16698,10.81,72468.8,0.01,-0.03,-0.03,0,*7C
1521104827.93,16699,10.81,72472.0,0.05,0.01,0.01,0,*79
1521104829.09,16700,10.81,72470.3,0.01,-0.03,-0.03,0,*7C
1521104830.25,16701,10.81,72472.5,0.01,-0.03,-0.03,0,*7D
1521104831.41,16702,10.81,72472.5,0.01,-0.03,0.05,0,*55
1521104832.59,16703,10.81,72474.3,0.07,0.05,0.05,0,*79
1521104833.75,16704,10.81,72472.3,0.01,-0.03,0.05,0,*53
1521104834.91,16705,10.81,72474.5,0.01,-0.03,-0.03,0,*79
1521104836.06,16706,10.81,72470.8,0.01,-0.03,-0.03,0,*7A
1521104837.23,16707,10.81,72474.5,0.01,-0.03,-0.03,0,*7B
1521104838.37,16708,10.81,72474.0,0.05,0.01,0.09,0,*78
1521104839.52,16709,10.81,72468.3,0.05,0.01,0.05,0,*75
1521104840.68,16710,10.81,72472.0,0.01,-0.03,-0.03,0,*7D
1521104841.83,16711,10.81,72474.3,0.01,0.05,-0.03,0,*57
1521104842.97,16712,10.81,72474.5,0.05,0.01,0.01,0,*7B
1521104844.13,16713,10.81,72472.8,0.05,0.05,0.05,0,*7A
1521104845.28,16714,10.81,72474.3,0.01,0.05,0.09,0,*75
1521104846.43,16715,10.88,72472.5,0.01,0.05,0.01,0,*7C
1521104847.58,16716,10.81,72472.3,0.05,0.05,0.05,0,*7F
1521104848.73,16717,10.81,72472.0,0.01,0.05,0.05,0,*7A
1521104849.88,16718,10.81,72472.8,0.05,0.05,0.09,0,*7D
1521104851.03,16719,10.81,72472.0,0.05,0.09,0.09,0,*70
1521104852.19,16720,10.81,72472.5,0.05,0.09,0.09,0,*7A
1521104853.34,16721,10.81,72472.3,0.05,0.09,0.09,0,*7B
1521104854.57,16722,10.81,72470.5,0.07,0.13,0.21,0,*7B
1521104855.8,16723,10.81,72472.0,0.07,0.13,0.21,0,*7A
1521104856.97,16724,10.81,72472.5,0.05,0.09,0.17,0,*41
1521104858.21,16725,10.81,72468.8,0.07,0.13,0.21,0,*7C
1521104859.44,16726,10.81,72470.3,0.07,0.13,0.21,0,*7F
1521104860.67,16727,10.88,72472.3,0.07,0.13,0.21,0,*7E
1521104861.9,16728,10.81,72470.8,0.07,0.13,0.21,0,*71
1521104863.13,16729,10.81,72468.5,0.07,0.13,0.13,0,*71
1521104864.35,16730,10.81,72474.5,0.07,0.13,0.13,0,*79
1521104865.53,16731,10.88,72474.3,0.07,0.09,0.09,0,*78
1521104866.71,16732,10.81,72474.0,0.09,0.09,0.13,0,*4E
1521104867.88,16733,10.81,72474.0,0.09,0.05,0.13,0,*43
1521104869.03,16734,10.81,72472.0,0.09,0.09,0.05,0,*7F
1521104870.26,16735,10.81,72472.3,0.11,0.13,0.17,0,*4F
1521104871.43,16736,10.88,72474.0,0.09,0.13,0.09,0,*4A
1521104872.62,16737,10.81,72474.0,0.09,0.13,0.13,0,*70
1521104873.8,16738,10.81,72470.8,0.09,0.09,0.13,0,*44
1521104875.0,16739,10.88,72472.8,0.11,0.13,0.09,0,*7C
1521104876.15,16740,10.81,72468.8,0.09,0.05,0.05,0,*70
1521104877.3,16741,10.81,72470.8,0.09,0.05,0.05,0,*71
1521104878.46,16742,10.88,72472.3,0.09,0.05,0.05,0,*72
1521104879.64,16743,10.88,72472.0,0.07,0.05,0.05,0,*7D
1521104880.79,16744,10.81,72472.3,0.09,0.05,0.05,0,*74
1521104881.94,16745,10.88,72474.3,0.09,0.05,0.05,0,*75
1521104883.1,16746,10.88,72472.8,0.09,0.05,-0.03,0,*5D
1521104884.25,16747,10.88,72472.0,0.09,-0.03,0.05,0,*5C
1521104885.41,16748,10.81,72472.5,0.09,-0.03,0.05,0,*53
1521104886.57,16749,10.88,72472.5,0.09,-0.03,0.05,0,*52
1521104887.73,16750,10.88,72472.8,0.09,-0.03,-0.07,0,*75
1521104888.89,16751,10.88,72472.3,0.09,-0.03,-0.03,0,*70
1521104890.05,16752,10.88,72474.5,0.09,-0.03,-0.03,0,*73
1521104891.22,16753,10.81,72468.8,0.09,0.13,0.09,0,*49
1521104892.37,16754,10.81,72472.8,0.09,0.05,0.05,0,*75
1521104893.52,16755,10.88,72474.5,0.09,0.05,0.05,0,*74
1521104894.67,16756,10.88,72472.8,0.09,0.09,0.05,0,*7B
1521104895.82,16757,10.88,72472.3,0.09,0.05,0.09,0,*7A
1521104896.98,16758,10.81,72472.5,0.09,0.05,0.05,0,*79
1521104898.13,16759,10.81,72472.5,0.09,0.05,0.05,0,*78